Temp
11 11 9 8 9 9 8 8 8 8 8 8 8 8 8 8 8 9 9 19 20 21 21 21 21 22 22 22 23 23 20 20 23 24 26 27 26 28 29 30 31 30 29 30 29
11 10 11 9 9 8 8 8 8 8 8 8 8 8 8 8 8 8 18 21 22 21 21 20 21 21 20 21 22 21 18 21 24 27 27 27 27 27 29 28 29 30 29 28 27
10 10 11 10 10 9 8 8 8 8 8 8 8 8 8 8 9 15 23 22 22 21 21 21 22 20 20 21 21 21 21 24 25 26 26 26 26 29 28 29 30 30 30 28 26
10 10 10 10 10 10 8 8 8 8 8 8 8 8 8 8 19 22 22 23 21 20 21 20 20 20 19 21 21 23 23 24 26 27 26 27 27 27 28 29 29 29 30 29 27
9 9 9 10 10 10 10 8 8 8 9 8 8 8 8 10 13 23 23 22 20 20 20 19 19 20 20 20 21 22 23 24 25 24 24 25 25 26 27 27 28 28 28 27 27
9 9 9 9 9 9 9 9 8 8 9 8 8 8 9 14 22 22 22 19 20 19 20 20 20 20 21 21 21 22 22 23 24 24 23 25 25 25 27 27 28 28 28 26 25
9 9 9 9 8 9 8 8 8 8 8 9 8 8 9 14 20 20 22 20 20 21 20 21 21 22 22 23 22 23 24 23 23 24 24 24 24 25 27 27 27 26 25 26 26
8 8 9 9 8 8 8 8 8 8 9 9 9 9 10 19 19 20 20 20 20 21 22 22 22 21 22 23 22 24 22 22 24 26 25 25 25 26 26 26 25 25 25 25 25
8 8 8 8 8 8 8 7 9 10 10 9 9 9 13 19 19 22 21 21 20 21 21 23 22 21 22 21 20 20 21 22 24 25 27 26 24 25 25 25 24 24 24 24 24
8 8 8 8 8 8 8 9 10 10 9 9 10 11 14 20 22 23 22 22 22 21 22 22 19 20 18 19 19 21 22 23 22 25 25 23 22 23 24 23 23 24 23 23 23
8 8 8 8 8 8 8 10 10 10 10 12 15 16 21 22 23 23 23 21 23 22 20 21 20 19 20 20 21 22 21 21 22 23 25 23 22 23 23 23 21 22 23 22 22
8 8 9 8 8 7 7 8 14 16 15 13 15 16 18 21 22 22 23 22 21 20 21 19 19 20 21 21 21 21 21 20 21 23 22 22 22 22 24 25 23 22 22 21 22
10 9 8 8 7 7 7 9 14 16 16 19 16 17 19 20 21 22 22 21 21 20 20 19 21 21 21 21 21 21 20 20 21 23 23 23 21 23 24 24 23 24 23 22 22
10 10 8 8 8 8 7 16 16 13 17 20 19 20 21 22 23 23 23 22 22 20 19 20 21 22 22 21 21 19 21 22 22 22 20 22 19 20 22 22 23 22 21 21 20
11 9 8 7 8 8 15 15 16 15 18 22 21 24 22 22 23 23 24 23 21 21 20 20 22 22 22 21 22 21 23 21 22 21 20 21 18 18 21 23 22 21 21 20 19
11 8 8 8 7 16 15 15 16 17 18 22 23 22 22 23 23 23 23 23 21 22 22 21 23 23 22 24 23 23 23 18 16 16 18 20 19 17 21 23 21 21 19 18 17
12 12 7 9 12 16 16 16 16 16 20 21 21 22 22 22 23 23 22 21 19 19 19 21 22 23 23 22 20 19 18 17 17 17 17 19 18 17 21 21 21 20 18 17 17
13 15 15 16 17 16 17 17 17 19 20 22 23 21 21 21 22 22 21 20 21 20 18 18 19 22 22 21 20 21 18 16 18 16 17 17 18 20 20 19 18 18 17 17 16
14 14 14 19 19 17 16 15 16 18 20 22 23 21 21 21 21 21 20 19 19 20 19 19 20 21 21 22 22 20 17 17 15 15 15 16 18 21 18 18 18 17 17 16 15
11 12 15 19 19 18 16 16 16 18 21 22 20 20 19 19 19 19 19 19 19 19 18 18 18 18 20 21 19 19 18 17 14 15 15 15 17 17 19 17 18 17 17 17 17
12 14 19 19 19 14 15 17 19 21 22 21 20 19 19 19 19 18 19 19 20 18 17 16 16 17 18 18 17 16 16 15 14 13 13 14 15 17 16 18 18 17 19 19 19
8 15 18 19 15 14 15 18 18 22 21 20 21 20 19 19 19 19 19 19 20 19 17 16 14 15 16 16 16 17 16 14 11 14 14 15 14 17 16 17 18 16 16 16 16
8 10 17 18 15 15 18 19 21 21 20 20 19 19 19 18 17 19 18 19 18 17 16 16 13 13 14 15 15 15 15 13 12 11 12 12 14 15 16 17 17 16 16 16 17
8 14 13 14 14 17 18 19 20 20 19 19 19 18 17 17 16 18 17 16 17 16 16 15 12 13 12 15 12 14 14 14 13 11 11 12 13 15 15 16 16 15 15 14 14
8 12 13 14 16 17 18 19 19 19 19 16 16 17 17 16 16 15 16 16 15 16 13 13 13 13 13 13 14 13 13 14 12 12 12 14 14 15 14 14 14 14 14 14 15
10 10 10 12 14 16 16 16 18 17 17 17 15 14 15 14 15 14 15 15 16 14 13 10 11 13 13 13 13 13 14 14 14 14 14 14 14 14 16 14 13 13 13 13 13
9 10 10 12 14 15 16 17 17 15 16 16 15 14 13 14 14 14 14 13 14 12 11 11 10 10 11 12 12 11 13 13 14 14 14 13 13 14 14 14 14 14 14 14 13
Height
795 791 789 787 784 781 779 776 775 773 772 771 770 770 770 769 768 767 762 748 753 756 758 759 765 770 770 771 769 768 798 802 791 788 773 758 762 748 739 743 735 733 732 729 735
793 790 787 785 782 780 777 775 773 772 770 769 768 767 767 767 765 760 741 746 750 753 756 759 764 766 773 772 770 778 798 785 771 764 765 762 761 757 753 749 744 739 736 735 737
790 788 785 783 780 777 775 773 771 769 768 767 766 766 765 765 766 740 730 735 744 749 756 759 763 766 773 771 770 772 780 770 763 759 756 762 759 750 757 757 746 745 741 744 742
788 786 783 780 778 775 773 771 769 768 767 766 766 765 765 766 756 729 729 731 740 747 753 758 762 768 775 777 767 773 765 764 758 756 757 759 752 755 754 750 740 740 739 738 745
787 783 781 778 775 772 770 768 767 765 764 764 763 763 765 764 747 727 726 727 737 743 748 754 761 767 773 772 768 770 765 760 756 758 758 756 760 757 753 744 739 737 742 742 741
785 781 779 776 772 770 767 765 764 763 762 762 762 764 764 759 729 727 728 729 734 742 748 751 754 757 764 764 769 761 763 760 756 757 757 760 756 756 747 739 740 737 739 740 742
781 778 776 773 770 767 764 763 762 760 760 760 761 762 761 741 728 728 728 730 735 739 744 747 749 754 757 760 757 756 764 759 758 754 756 751 762 757 741 737 741 741 739 736 736
779 775 772 770 766 763 761 758 757 757 757 758 760 761 752 728 727 728 730 733 737 740 743 747 750 754 756 751 759 761 767 778 758 750 746 750 768 746 738 740 741 738 736 735 734
775 772 769 766 762 758 756 754 752 752 755 757 760 760 745 727 726 724 729 731 737 741 744 747 750 755 754 767 778 778 784 777 766 749 747 752 762 743 737 740 741 736 732 731 730
773 768 765 762 760 755 751 749 750 752 755 758 758 761 732 723 720 723 726 731 734 740 746 749 754 762 769 772 792 780 777 771 773 755 752 760 763 749 738 737 735 730 730 731 729
771 765 761 759 756 753 750 750 755 756 752 741 737 734 721 721 720 722 725 730 733 738 754 748 762 772 764 764 763 765 773 775 764 755 756 763 761 749 739 733 736 733 731 731 728
767 762 757 754 752 751 749 748 737 737 738 731 733 731 724 724 724 722 723 733 738 750 747 758 766 755 754 759 762 768 773 776 763 752 761 759 759 751 738 733 734 729 729 729 724
762 757 753 750 747 745 742 735 732 732 735 723 726 726 720 720 723 722 722 730 741 749 752 765 753 746 754 758 764 766 772 772 771 753 752 754 766 751 738 731 727 723 724 726 725
757 752 749 745 745 740 736 728 730 735 738 726 723 716 715 714 720 712 716 727 736 751 756 759 747 750 755 761 762 774 756 754 760 766 784 758 793 767 749 745 734 729 726 722 719
752 746 744 744 740 737 729 727 726 736 749 715 716 705 707 718 716 718 715 724 741 744 751 757 748 750 754 754 749 760 743 752 755 767 771 770 788 774 753 746 741 734 727 721 717
745 740 738 736 736 726 726 726 730 742 747 718 709 714 718 716 716 717 720 721 729 740 742 748 737 740 745 739 740 740 746 763 773 781 792 772 779 784 759 746 742 732 731 729 721
737 732 732 731 726 724 725 728 747 749 723 722 719 714 717 722 722 720 728 738 749 761 761 751 746 738 735 748 749 752 770 794 795 798 796 769 782 775 747 742 740 737 738 734 729
730 725 723 721 721 724 725 737 748 732 724 709 710 718 727 724 726 724 734 744 737 745 763 769 770 748 739 748 757 756 770 795 795 802 790 776 779 764 749 746 744 742 744 740 737
726 723 721 718 718 721 727 750 745 735 718 711 712 725 728 723 727 731 738 746 744 739 757 764 761 745 745 742 747 758 776 770 788 794 799 787 769 750 749 749 748 748 746 747 746
726 723 719 717 718 719 733 742 740 728 714 710 724 723 735 733 736 739 742 742 744 741 742 755 766 758 751 744 750 756 761 779 794 799 804 794 779 773 757 758 753 752 749 747 744
728 725 716 717 720 727 743 740 725 711 709 715 724 730 733 736 737 743 745 745 739 746 746 756 765 766 757 765 770 774 776 779 787 795 805 801 786 759 763 758 757 754 748 745 743
735 730 717 719 732 735 737 725 717 710 708 713 716 723 730 732 739 741 744 744 737 741 756 760 773 778 770 766 764 764 773 783 807 793 789 788 785 756 758 755 753 754 749 746 744
744 738 719 719 738 735 724 721 713 714 716 719 725 723 726 735 747 741 744 740 741 747 755 759 781 790 781 777 772 776 775 782 791 798 794 803 783 759 755 751 750 749 744 741 739
746 736 728 725 727 727 725 721 720 714 718 720 726 726 734 742 743 745 748 750 746 750 751 758 780 782 792 779 786 783 780 778 786 801 798 783 775 768 762 756 750 745 744 742 741
746 739 737 734 729 725 721 720 721 723 721 726 734 735 738 747 747 754 752 752 754 754 760 766 779 778 779 779 777 777 775 775 784 782 785 768 767 760 760 757 753 746 746 746 745
746 747 741 737 731 727 726 727 724 727 729 734 740 745 743 752 751 757 753 754 755 759 764 776 783 778 779 774 775 775 770 769 768 766 763 763 760 751 747 751 753 752 750 748 747
747 745 747 739 732 730 728 726 727 730 734 733 738 746 751 752 750 750 752 755 756 764 772 776 787 795 786 778 778 779 765 762 758 755 756 763 756 751 751 749 750 750 750 747 747
Wind_Speed
17 16 15 13 14 15 14 12 12 12 12 11 10 9 9 9 11 10 12 19 29 10 11 9 10 9 6 3 3 4 2 4 6 6 4 5 8 6 5 0 4 5 4 7 22
17 17 16 15 13 14 14 12 10 11 11 10 9 8 7 8 11 16 31 21 17 20 13 7 5 7 3 4 4 4 5 8 5 3 5 5 2 4 6 8 6 4 9 11 23
16 17 16 16 16 13 14 13 11 10 10 9 8 8 6 5 3 11 7 30 23 23 21 11 7 6 3 3 4 5 5 4 6 7 4 4 7 2 6 3 3 1 2 7 7
15 16 17 16 17 16 14 13 11 10 9 9 8 6 5 3 5 1 1 6 29 25 15 10 4 5 4 5 5 2 5 5 4 6 4 5 6 5 3 6 5 5 1 2 11
16 15 17 16 17 17 16 15 13 11 9 8 7 5 4 3 10 2 7 12 30 26 16 7 6 6 5 6 2 3 4 6 8 9 6 5 8 7 7 11 7 6 3 6 6
18 16 18 18 17 18 17 16 15 12 9 7 7 5 4 4 4 5 3 28 29 25 14 11 9 8 4 4 6 6 7 9 5 9 5 5 11 8 8 11 8 6 8 7 9
21 19 19 18 18 18 18 17 15 14 9 6 5 4 3 12 5 4 12 24 32 24 9 15 7 4 3 2 6 4 3 5 5 7 7 7 7 7 12 7 8 8 9 9 8
22 20 19 19 19 19 18 18 16 12 9 7 6 4 7 4 8 10 11 12 20 23 9 12 11 2 3 3 5 2 4 1 5 2 6 9 7 7 10 7 11 11 9 8 9
22 22 19 20 19 21 20 18 10 6 7 7 4 4 9 8 5 15 16 8 19 16 13 2 9 6 2 5 4 5 2 3 6 3 1 3 5 9 6 8 11 11 10 8 9
22 22 23 20 19 19 19 9 4 5 7 6 4 3 8 4 6 11 17 12 5 6 3 5 2 3 3 3 5 5 2 2 5 3 3 7 9 9 8 7 13 11 8 8 9
23 23 24 22 19 15 11 4 3 1 6 9 5 4 3 7 10 11 13 9 2 4 5 4 4 5 8 6 4 2 3 5 5 3 2 8 6 8 9 5 9 8 8 10 10
26 24 24 22 18 13 6 3 5 2 5 17 8 9 13 6 1 5 16 5 5 4 3 5 5 7 4 3 4 4 3 6 9 6 6 7 8 9 6 5 6 8 8 10 7
26 26 23 23 20 11 11 16 8 9 3 3 7 5 6 7 5 6 10 5 6 5 5 6 5 4 3 3 3 5 4 6 8 6 2 3 6 5 5 5 7 4 5 6 8
29 27 24 22 6 3 6 8 22 9 1 3 5 6 5 5 3 6 9 6 2 8 7 5 6 4 4 6 7 7 8 14 8 2 4 2 5 5 5 8 5 9 9 9 9
30 32 23 15 8 4 2 12 9 8 2 7 4 5 5 7 4 2 8 4 7 6 6 5 2 4 3 6 6 8 4 8 7 5 3 2 2 7 4 7 7 9 10 10 10
37 31 21 7 12 7 9 10 2 2 3 4 4 5 5 3 1 3 5 5 3 4 2 5 2 2 4 1 2 3 3 8 5 3 0 4 4 4 3 3 6 6 8 9 4
38 28 12 9 4 3 7 4 4 2 1 4 3 4 4 3 1 7 6 5 5 4 1 3 3 3 2 3 6 6 6 2 3 2 5 1 1 8 3 4 3 4 9 9 8
34 14 7 15 3 7 4 3 1 3 4 4 5 7 5 5 4 3 6 4 2 4 3 4 2 1 2 4 4 2 6 5 6 4 3 4 4 3 4 5 6 11 7 9 10
30 5 5 3 6 5 4 3 1 2 6 3 7 4 2 2 5 4 3 2 4 1 6 4 2 1 6 1 3 2 3 3 5 2 3 4 6 1 5 8 8 8 9 9 9
19 8 5 6 9 4 3 4 3 9 7 3 3 2 3 3 3 4 2 3 3 3 4 2 2 2 2 2 6 4 5 3 3 4 4 4 4 5 2 5 7 8 6 7 7
6 3 2 11 8 4 4 6 6 9 7 3 3 3 3 4 3 2 3 2 2 3 5 3 3 3 1 3 2 5 3 5 3 3 5 1 5 3 5 2 5 6 7 8 8
6 1 6 11 3 1 3 4 6 2 6 6 4 3 3 3 3 2 3 3 2 1 4 2 4 0 3 6 4 2 3 3 4 4 1 1 5 4 5 4 3 8 8 7 8
3 3 4 1 2 1 4 4 1 2 3 3 4 3 3 3 5 3 4 1 5 4 5 4 2 2 6 5 5 6 2 4 4 3 5 4 4 6 9 14 9 12 11 7 4
1 2 3 3 0 3 4 3 3 4 4 5 4 5 5 4 5 3 3 6 3 4 8 6 3 5 5 3 3 3 3 4 5 3 4 6 7 8 11 16 16 14 5 6 7
1 1 1 2 2 3 1 1 4 3 3 7 6 5 4 3 3 3 3 2 6 4 4 4 3 3 4 4 3 5 10 6 8 7 8 3 13 11 7 8 6 5 5 5 5
2 3 4 2 3 4 2 4 4 4 4 3 6 4 5 5 2 4 3 1 2 2 3 4 2 2 3 5 5 7 10 9 11 12 13 10 15 5 0 5 4 5 5 6 7
5 3 2 4 4 3 2 4 2 6 6 4 8 5 5 5 3 2 3 3 5 7 3 3 5 3 4 3 6 7 6 7 5 6 5 6 7 0 2 5 3 1 4 5 7
Wind_Direction
337 340 338 339 337 331 321 308 294 283 277 274 273 275 281 286 295 267 231 217 219 188 160 135 179 192 199 233 228 109 94 228 209 180 244 332 18 323 292 303 340 325 142 165 152
336 334 336 333 338 333 327 318 300 290 281 276 274 277 281 296 296 249 240 230 224 189 180 148 158 144 169 205 195 157 175 214 202 213 270 314 358 308 338 353 352 31 48 105 147
337 334 335 332 333 335 329 325 316 301 287 281 277 273 287 318 296 242 237 223 203 194 204 191 136 140 179 180 205 184 217 208 256 268 285 261 299 105 310 316 251 54 46 119 120
338 335 332 335 332 332 330 325 319 311 293 279 272 277 283 251 205 187 226 199 190 182 161 149 134 130 165 201 211 203 237 224 256 259 275 264 293 308 224 252 248 192 168 339 139
336 336 329 329 331 329 328 324 317 312 299 280 278 283 253 211 251 279 307 177 175 177 174 149 133 154 177 197 128 224 251 256 253 265 247 284 262 252 265 252 225 272 181 198 214
330 334 327 324 327 323 323 321 316 311 304 277 262 249 238 246 291 301 168 149 167 168 170 163 177 192 203 203 155 216 233 253 289 272 252 210 264 145 258 243 254 226 256 236 217
326 328 325 322 324 320 318 314 308 303 286 250 230 225 281 241 67 120 168 165 173 174 170 197 184 151 154 252 225 229 247 291 244 257 240 177 276 207 238 234 238 252 243 254 242
325 323 322 319 322 320 317 309 303 295 280 234 202 212 248 251 303 213 170 174 185 190 181 199 189 189 204 227 17 20 38 333 280 231 265 155 250 262 255 261 263 256 251 242 249
325 324 320 318 320 322 316 311 296 292 240 180 181 201 265 306 243 199 190 171 184 200 221 141 158 198 135 125 27 4 199 198 300 222 259 216 285 263 291 251 250 259 258 257 269
327 324 320 319 324 324 317 330 142 108 118 154 254 316 268 226 188 207 206 161 157 148 166 185 126 156 56 104 201 206 205 254 217 273 355 312 276 284 278 279 250 247 259 270 267
322 326 319 316 324 322 327 102 90 206 225 195 187 255 330 324 168 197 181 158 309 127 161 170 121 198 213 191 174 184 189 251 262 247 277 258 248 279 292 335 290 251 246 257 258
327 325 317 314 317 305 272 218 230 110 270 224 237 268 281 288 267 165 172 137 133 196 114 42 225 223 210 177 192 217 251 270 290 262 157 273 258 259 277 283 250 238 253 246 245
331 327 320 315 312 280 217 226 199 17 223 238 184 213 232 154 211 215 139 135 140 139 152 154 241 147 179 263 251 246 200 251 223 304 242 301 309 295 295 306 335 311 259 265 251
331 329 321 320 298 223 235 332 229 251 1 165 194 252 193 199 219 179 151 131 118 176 145 206 274 201 184 240 172 260 211 232 235 178 245 88 276 298 299 316 307 305 305 282 261
332 329 319 307 283 228 231 341 155 152 92 153 158 166 164 150 148 206 153 72 160 151 123 228 102 100 178 219 168 230 303 206 206 185 127 318 79 268 285 307 315 309 309 308 305
333 327 318 278 212 253 326 147 173 64 204 182 127 156 129 192 112 127 121 72 148 132 71 217 250 185 214 302 29 294 88 36 49 87 208 230 156 272 261 262 300 322 353 339 20
332 327 286 200 217 60 90 110 57 172 76 207 193 135 127 127 181 159 135 135 140 124 319 317 237 267 199 158 356 69 58 344 326 337 220 196 79 242 320 329 276 22 4 360 344
333 322 270 232 175 277 136 60 204 301 204 269 142 128 152 147 217 124 119 140 154 118 127 169 157 167 356 128 169 100 145 161 205 208 257 292 237 240 55 6 41 63 40 27 20
337 327 266 257 208 183 84 73 209 259 257 264 112 135 156 73 125 91 86 119 27 192 165 168 128 25 40 71 151 176 78 173 104 30 55 263 299 25 42 43 45 42 39 28 16
334 326 255 170 156 113 88 9 182 227 279 322 95 76 94 15 84 90 80 341 102 23 126 175 122 40 329 11 36 91 161 74 14 174 233 287 271 236 61 29 31 16 27 357 343
347 343 23 158 166 50 98 236 215 229 220 89 115 91 122 126 93 93 123 353 79 63 89 106 111 270 23 61 96 357 16 51 113 137 178 214 251 250 124 82 15 338 340 327 330
349 1 12 162 59 194 179 205 289 51 36 49 69 98 107 102 84 100 111 111 111 89 68 9 117 151 258 310 235 162 135 112 126 238 212 166 263 173 159 244 303 315 288 276 277
338 276 13 93 149 268 296 276 314 83 34 67 44 70 80 108 90 95 94 150 135 96 153 173 50 38 353 355 16 75 62 92 101 89 205 176 251 195 311 318 315 305 275 276 262
356 344 324 60 181 185 207 258 122 30 71 76 69 69 77 59 37 114 84 8 36 95 85 94 104 153 195 198 170 261 253 199 158 174 226 219 268 294 287 290 300 292 335 26 67
159 292 180 284 324 290 76 292 128 95 69 36 28 35 129 101 82 92 89 106 29 43 63 96 129 168 240 241 219 242 272 272 205 215 223 237 263 268 245 258 303 357 71 47 40
37 14 344 290 294 282 24 348 127 106 41 51 104 47 80 107 121 163 120 100 146 24 64 8 147 109 280 276 287 281 273 262 265 266 260 261 271 227 66 88 61 38 18 1 339
343 353 98 290 339 1 210 170 95 117 21 75 139 101 81 145 146 190 192 174 158 147 127 115 127 101 275 355 338 304 248 228 231 227 214 227 239 242 326 13 349 326 322 322 324